World > North America > United States > New York

Hourly Sempronius, NY Regional Weather

Feedback E-mail the Weather

Latest News

Sempronius, NY Weather Maps

°F °C°F °C
Sempronius Weather Map
UTC Time: 5/26/2022, 01:53
Your Time:

Sempronius, NY Regional Weather

Expires:202205260200;;584741
ASUS41 KBGM 260110
RWRBGM

REGIONAL WEATHER ROUNDUP
NATIONAL WEATHER SERVICE BINGHAMTON NY
900 PM EDT WED MAY 25 2022

Note: "fair" indicates few or no clouds below 12,000 feet with no
significant weather and/or obstructions to visibility.

* = Station(s) that does not report precipitation, such as rain, 
snow, etc, also no thunder or fog.


NYZ009-015>018-022>025-036-037-044>046-055>057-062-260200
...Central New York...
  
CITY           SKY/WX    TMP DP  RH WIND       PRES   REMARKS
Binghamton     MOCLDY    64  47  53 S8        30.25S                  
Cortland       FAIR      66  46  48 S6        30.23S                  
Dansville      MOCLDY    70  49  47 SE10      30.16R                  
Elmira         MOCLDY    67  47  48 S10       30.21S                  
Endicott       CLEAR     66  48  52 CALM      30.24S                  
Ithaca         MOCLDY    65  49  56 SE6       30.23S                  
Hamilton       CLEAR     63  50  63 SE3       30.24R                  
Monticello     MOCLDY    61  47  59 S7        30.33S                  
Norwich        CLEAR     64  50  59 S5        30.27S                  
Oneonta        CLEAR     63  48  59 CALM      30.28S                  
Penn Yan       MOCLDY    68  47  46 S8        30.19F                  
Rome           MOCLDY    68  52  56 E6        30.22F                  
Seneca Falls   CLEAR     70  48  46 S9        30.18F                  
Sidney         CLEAR     64  50  59 S3        30.26R                  
Skaneateles    FAIR      70  50  49 VRB6      30.20F                  
Syracuse       CLOUDY    67  52  58 E7        30.19F                  
$$
 

SKY/WX - Weather  TMP - Temperature  DP - Dew Point  RH - Humidity
WIND - Wind Direction/Speed PRES - Barometric Pressure VSB - Visibility
WCI - Wind Chill Index E13G22 Wind - East Wind 13 mph/Gusts of 22 mph

Trending Headlines

Sempronius Radar Loop



Sempronius Quick Facts


National Two Day Weather Forecast


E-mail the Sempronius Weather Forecast

Voice your opinion or tell us about page issues...